EN

Hourly Weather Labushne

Today, 25 July, Sunday

Time Temperature Precipitation Wind Pressure Humidity
00:00 +19°C° 0 mm 0 mps 742 mmHg 57%
01:00 +19°C° 0 mm 0 mps 742 mmHg 57%
02:00 +19°C° 0 mm 0 mps 742 mmHg 59%
03:00 +18°C° 0 mm 0 mps 742 mmHg 60%
04:00 +18°C° 0 mm 0 mps 742 mmHg 61%
05:00 +18°C° 0 mm 0 mps 742 mmHg 62%
06:00 +19°C° 0 mm 0 mps 743 mmHg 60%
07:00 +23°C° 0 mm 1 mps 743 mmHg 58%
08:00 +24°C° 0 mm 1 mps 743 mmHg 56%
09:00 +25°C° 0 mm 1 mps 743 mmHg 50%
10:00 +27°C° 0 mm 1 mps 743 mmHg 44%
11:00 +28°C° 0 mm 1 mps 743 mmHg 38%
12:00 +29°C° 0 mm 1 mps 743 mmHg 37%
13:00 +29°C° 0 mm 1 mps 743 mmHg 36%
14:00 +30°C° 0 mm 1 mps 743 mmHg 35%
15:00 +29°C° 0 mm 1 mps 743 mmHg 36%
16:00 +29°C° 0 mm 1 mps 743 mmHg 38%
17:00 +29°C° 0 mm 1 mps 743 mmHg 40%
18:00 +27°C° 0 mm 1 mps 743 mmHg 44%
19:00 +26°C° 0 mm 1 mps 743 mmHg 49%
20:00 +24°C° 0 mm 1 mps 743 mmHg 53%
21:00 +23°C° 0 mm 2 mps 743 mmHg 55%
22:00 +23°C° 0 mm 2 mps 743 mmHg 56%
23:00 +21°C° 0 mm 2 mps 743 mmHg 57%

Tomorrow, 26 July, Monday

Time Temperature Precipitation Wind Pressure Humidity
00:00 +21°C° 0 mm 2 mps 743 mmHg 57%
01:00 +21°C° 0 mm 2 mps 743 mmHg 57%
02:00 +20°C° 0 mm 2 mps 743 mmHg 58%
03:00 +20°C° 0 mm 2 mps 743 mmHg 59%
04:00 +21°C° 0 mm 1 mps 743 mmHg 60%
05:00 +21°C° 0 mm 1 mps 743 mmHg 61%
06:00 +23°C° 0 mm 2 mps 743 mmHg 59%
07:00 +24°C° 0 mm 2 mps 744 mmHg 57%
08:00 +26°C° 0 mm 2 mps 744 mmHg 55%
09:00 +27°C° 0 mm 2 mps 744 mmHg 49%
10:00 +29°C° 0 mm 2 mps 744 mmHg 43%
11:00 +30°C° 0 mm 3 mps 744 mmHg 38%
12:00 +31°C° 0 mm 2 mps 744 mmHg 36%
13:00 +31°C° 0 mm 2 mps 744 mmHg 34%
14:00 +32°C° 0 mm 2 mps 743 mmHg 32%
15:00 +32°C° 0 mm 2 mps 743 mmHg 33%
16:00 +32°C° 0 mm 2 mps 743 mmHg 34%
17:00 +31°C° 0 mm 2 mps 743 mmHg 36%
18:00 +30°C° 0 mm 2 mps 743 mmHg 40%
19:00 +28°C° 0 mm 1 mps 743 mmHg 44%
20:00 +26°C° 0 mm 1 mps 743 mmHg 48%
21:00 +25°C° 0 mm 2 mps 743 mmHg 51%
22:00 +24°C° 0 mm 2 mps 743 mmHg 53%
23:00 +23°C° 0 mm 2 mps 743 mmHg 55%

Day after tomorrow, 27 July, Tuesday

Time Temperature Precipitation Wind Pressure Humidity
00:00 +23°C° 0 mm 2 mps 743 mmHg 57%
01:00 +21°C° 0 mm 2 mps 743 mmHg 59%
02:00 +21°C° 0 mm 2 mps 743 mmHg 61%
03:00 +21°C° 0 mm 2 mps 743 mmHg 60%
04:00 +21°C° 0 mm 2 mps 743 mmHg 59%
05:00 +21°C° 0 mm 2 mps 743 mmHg 58%
06:00 +23°C° 0 mm 2 mps 743 mmHg 56%
07:00 +25°C° 0 mm 3 mps 743 mmHg 53%
08:00 +27°C° 0 mm 3 mps 743 mmHg 51%
09:00 +28°C° 0 mm 4 mps 743 mmHg 47%
10:00 +30°C° 0 mm 4 mps 743 mmHg 43%
11:00 +32°C° 0 mm 5 mps 743 mmHg 40%
12:00 +32°C° 0 mm 5 mps 743 mmHg 42%
13:00 +30°C° 0 mm 4 mps 743 mmHg 43%
14:00 +30°C° 0 mm 4 mps 743 mmHg 45%
15:00 +30°C° 0 mm 4 mps 743 mmHg 48%
16:00 +29°C° 0 mm 3 mps 743 mmHg 50%
17:00 +28°C° 0 mm 2 mps 743 mmHg 53%
18:00 +27°C° 0 mm 2 mps 743 mmHg 55%
19:00 +26°C° 0 mm 2 mps 742 mmHg 57%
20:00 +25°C° 0 mm 2 mps 742 mmHg 59%
21:00 +24°C° 0 mm 2 mps 742 mmHg 60%
22:00 +24°C° 0 mm 2 mps 742 mmHg 62%
23:00 +23°C° 0 mm 2 mps 742 mmHg 63%

28 July, Wednesday

Time Temperature Precipitation Wind Pressure Humidity
00:00 +23°C° 0 mm 2 mps 742 mmHg 65%
01:00 +23°C° 0 mm 2 mps 742 mmHg 67%
02:00 +23°C° 0 mm 2 mps 741 mmHg 69%
03:00 +23°C° 0 mm 2 mps 741 mmHg 69%
04:00 +23°C° 0 mm 2 mps 741 mmHg 68%
05:00 +23°C° 0 mm 2 mps 741 mmHg 68%
06:00 +24°C° 0 mm 2 mps 741 mmHg 66%
07:00 +25°C° 0 mm 3 mps 741 mmHg 64%
08:00 +26°C° 0 mm 3 mps 741 mmHg 62%
09:00 +28°C° 0 mm 3 mps 741 mmHg 57%
10:00 +30°C° 0 mm 3 mps 741 mmHg 53%
11:00 +31°C° 0 mm 3 mps 742 mmHg 48%
12:00 +33°C° 0 mm 3 mps 741 mmHg 46%
13:00 +34°C° 0 mm 3 mps 741 mmHg 44%
14:00 +35°C° 0 mm 2 mps 741 mmHg 42%
15:00 +35°C° 0 mm 2 mps 741 mmHg 42%
16:00 +35°C° 0 mm 2 mps 741 mmHg 42%
17:00 +35°C° 0 mm 2 mps 740 mmHg 42%
18:00 +32°C° 0 mm 1 mps 740 mmHg 47%
19:00 +30°C° 0 mm 1 mps 740 mmHg 52%
20:00 +28°C° 0 mm 1 mps 740 mmHg 58%
21:00 +27°C° 0.2 mm 1 mps 740 mmHg 62%
22:00 +26°C° 0.2 mm 1 mps 740 mmHg 66%
23:00 +25°C° 0.2 mm 1 mps 740 mmHg 70%

29 July, Thursday

Time Temperature Precipitation Wind Pressure Humidity
00:00 +25°C° 0.2 mm 1 mps 740 mmHg 73%
01:00 +24°C° 0.2 mm 1 mps 740 mmHg 76%
02:00 +23°C° 0.2 mm 1 mps 740 mmHg 79%
03:00 +23°C° 0.1 mm 1 mps 740 mmHg 80%
04:00 +23°C° 0.1 mm 1 mps 740 mmHg 81%
05:00 +23°C° 0.1 mm 1 mps 739 mmHg 82%
06:00 +25°C° 0 mm 1 mps 739 mmHg 75%
07:00 +27°C° 0 mm 2 mps 740 mmHg 69%
08:00 +28°C° 0 mm 2 mps 740 mmHg 63%
09:00 +30°C° 0 mm 2 mps 740 mmHg 57%
10:00 +32°C° 0 mm 2 mps 740 mmHg 51%
11:00 +34°C° 0 mm 2 mps 740 mmHg 46%
12:00 +35°C° 0 mm 2 mps 740 mmHg 43%
13:00 +36°C° 0 mm 2 mps 740 mmHg 39%
14:00 +35°C° 0 mm 1 mps 739 mmHg 36%
15:00 +35°C° 0 mm 1 mps 739 mmHg 36%
16:00 +35°C° 0 mm 1 mps 739 mmHg 37%
17:00 +35°C° 0 mm 1 mps 738 mmHg 37%
18:00 +33°C° 0 mm 1 mps 738 mmHg 42%
19:00 +31°C° 0 mm 1 mps 738 mmHg 47%
20:00 +29°C° 0 mm 1 mps 738 mmHg 52%
21:00 +28°C° 0.3 mm 2 mps 739 mmHg 59%
22:00 +27°C° 0.3 mm 3 mps 739 mmHg 66%
23:00 +25°C° 0.3 mm 4 mps 739 mmHg 73%

30 July, Friday

Time Temperature Precipitation Wind Pressure Humidity
00:00 +24°C° 0.1 mm 3 mps 739 mmHg 77%
01:00 +24°C° 0.1 mm 2 mps 739 mmHg 81%
02:00 +23°C° 0.1 mm 2 mps 739 mmHg 84%
03:00 +23°C° 0 mm 2 mps 739 mmHg 85%
04:00 +23°C° 0 mm 2 mps 739 mmHg 86%
05:00 +23°C° 0 mm 2 mps 739 mmHg 86%
06:00 +24°C° 0 mm 2 mps 739 mmHg 79%
07:00 +26°C° 0 mm 2 mps 740 mmHg 72%
08:00 +27°C° 0 mm 3 mps 740 mmHg 65%
09:00 +29°C° 0 mm 2 mps 740 mmHg 60%
10:00 +30°C° 0 mm 2 mps 740 mmHg 54%
11:00 +32°C° 0 mm 2 mps 740 mmHg 49%
12:00 +32°C° 0 mm 1 mps 740 mmHg 46%
13:00 +33°C° 0 mm 1 mps 739 mmHg 43%
14:00 +34°C° 0 mm 1 mps 739 mmHg 40%
15:00 +34°C° 0 mm 1 mps 739 mmHg 40%
16:00 +34°C° 0 mm 1 mps 739 mmHg 40%
17:00 +34°C° 0 mm 1 mps 739 mmHg 40%
18:00 +32°C° 0 mm 1 mps 738 mmHg 45%
19:00 +30°C° 0 mm 1 mps 738 mmHg 50%
20:00 +29°C° 0 mm 2 mps 738 mmHg 54%
21:00 +28°C° 0.1 mm 1 mps 738 mmHg 57%
22:00 +27°C° 0.1 mm 1 mps 738 mmHg 59%
23:00 +26°C° 0.1 mm 1 mps 738 mmHg 61%
Show more